map of HFD home
HFD - Airport
Location
City:  Hartford, Connecticut, United States
Name:Hartford-Brainard Airport
ICAO:KHFD
IATA:HFD
FAA LID:HFD

Details
Type:Airport (Airfield)
Use:Public/Civil
Latitude:4144'12"N (41.736722)
Longitude:7238'58"W (-72.649443)
Datum:WGS 1984
Elevation:18 ft (5 m)
Variation:13.77W (WMM2015 magnetic declination)
0.04 annual change
Runways:3
Longest:4417 × 150 ft (1346 × 45.5 m), paved

Time
Time Zone:UTC-5 (DST-4)
Local Time:

Weather
METAR:KHFD 200253Z 06004KT 10SM FEW023 OVC029 18/13 A3009 RMK AO2 SLP187 T01830133 51024

Related Locations
Nearby:
Farthest:YAUG: 11771 mi / 18943 km
Augusta [Augusta Airport], WA, AU

Find:

   beyond  
but within

Other Information
Maps:
NOTAMs:
Links:
Sources:

  
  • flag of United States
  • flag of Connecticut
  

Airport Diagram

Airport diagram for HFD

Airport diagram PDF

Sectional Chart

Flight Planning
at skyvector.com

Satellite Image

Google Maps Satellite view

 

Copyright © 2004-2018 Karl L. Swartz. All rights reserved.
The Great Circle Mapper name and logo are trademarks of the Great Circle Mapper.
All other trademarks mentioned herein belong to their respective owners.
Please see credits for attibutions and further copyright information.

  Follow gcmap on Facebook Follow gcmap on Twitter Follow gcmap on Google+ GCmap on LinkedIn

hCard Microformat

Geo Microformat